Aérodrome :
LOGIN :

S'inscrire | Disclaimer

   EN    FR    IT 

 










Légende :    VFR   VFR Marginal   IFR   IFR Intensif   IFR Très Intensif
Visi : 
Plafond : 
>= 8 km
>= 3000ft
5 à 8 km
1000 à 3000 ft
1500m à 5 km
500 à 1000 ft
800 à 1500m
200 à 500 ft
< 800m
< 200 ft
Symboles :   Orages  Brouillard  Fortes neiges  Fortes précipitations  Vent > 20 kt
SIGMETs :   Divers  Orages  Givrage  Turbulence  Onde Orograph.  Cendres Volcan.







- Altitude de l'aérodrome : 1708 ft
- Code IATA : SJJ


LQSA - Sarajevo

DERNIER METAR :
  • 180700Z 00000KT 7000 NSC 07/07 Q1020 NOSIG

METARs EXPIRÉS :
  • 180630Z 00000KT 6000 FEW003 06/06 Q1020 NOSIG
  • 180600Z 00000KT 6000 FEW002 05/05 Q1020 TEMPO 3000 BR
  • 180530Z 00000KT 6000 FEW002 04/04 Q1019 TEMPO 1500 BR
  • 180500Z VRB02KT 8000 3500NW FEW003 04/04 Q1019 NOSIG
  • 180430Z 00000KT 7000 NSC 05/05 Q1019 NOSIG

TAF TAF LQSA
Valide du 18 à 06h jusqu'au 19 à 06h UTC


180500Z 1806/1906 VRB02KT 6000 SCT055 TX22/1813Z TN06/1806Z
Pas de NOTAMs connus pour ce terrain.



MET'MAP, la Météo Aéronautique d'un coup d'oeil ! - Copyright ORBIFLY Décembre 2007 - Disclaimer

ORBIFLY MET'MAP TEAM :

Programmation & Développement : Alexandra Zaïnal
Conception & Développement : Baudouin d'Aumeries
Co-Programmation & Développement : Marc-Olivier Méhu
Soutien technique & logistique : Manuel Goepfert

Contact : metmap@orbifly.com




SOURCES & CREDITS :

   NOAA